• In Hungary
  • List of Countries
  • For 7 days
  • Water Temperature
  • Satellite Maps
  • Weather Map
  • News
  • Weather Widgets
  • user-avatar
    Login

    Hourly Weather Fellbach

    Today, 15 August, Wednesday

    Time Temperature Precipitation Wind Pressure Humidity
    00:00 +16°C° 0 mm 1 mps 736 mmHg 86%
    01:00 +16°C° 0 mm 1 mps 736 mmHg 88%
    02:00 +15°C° 0 mm 1 mps 736 mmHg 89%
    03:00 +15°C° 0 mm 1 mps 736 mmHg 90%
    04:00 +15°C° 0 mm 1 mps 736 mmHg 91%
    05:00 +16°C° 0 mm 1 mps 737 mmHg 89%
    06:00 +18°C° 0 mm 1 mps 737 mmHg 86%
    07:00 +18°C° 0 mm 1 mps 737 mmHg 83%
    08:00 +20°C° 0 mm 1 mps 737 mmHg 76%
    09:00 +22°C° 0 mm 1 mps 737 mmHg 69%
    10:00 +24°C° 0 mm 1 mps 737 mmHg 62%
    11:00 +25°C° 0 mm 1 mps 737 mmHg 58%
    12:00 +25°C° 0 mm 2 mps 737 mmHg 55%
    13:00 +26°C° 0 mm 2 mps 737 mmHg 51%
    14:00 +26°C° 0 mm 2 mps 737 mmHg 51%
    15:00 +26°C° 0 mm 2 mps 737 mmHg 51%
    16:00 +26°C° 0 mm 2 mps 736 mmHg 51%
    17:00 +25°C° 0 mm 1 mps 736 mmHg 56%
    18:00 +24°C° 0 mm 1 mps 736 mmHg 61%
    19:00 +23°C° 0 mm 1 mps 736 mmHg 67%
    20:00 +21°C° 0 mm 1 mps 736 mmHg 70%
    21:00 +20°C° 0 mm 1 mps 736 mmHg 74%
    22:00 +17°C° 0 mm 0 mps 737 mmHg 78%
    23:00 +16°C° 0 mm 0 mps 737 mmHg 80%

    Tomorrow, 16 August, Thursday

    Time Temperature Precipitation Wind Pressure Humidity
    00:00 +18°C° 0 mm 1 mps 736 mmHg 81%
    01:00 +18°C° 0 mm 1 mps 736 mmHg 83%
    02:00 +16°C° 0 mm 1 mps 736 mmHg 84%
    03:00 +16°C° 0 mm 1 mps 736 mmHg 86%
    04:00 +16°C° 0 mm 1 mps 736 mmHg 87%
    05:00 +18°C° 0 mm 1 mps 736 mmHg 84%
    06:00 +19°C° 0 mm 1 mps 735 mmHg 82%
    07:00 +19°C° 0 mm 1 mps 735 mmHg 79%
    08:00 +22°C° 0 mm 1 mps 735 mmHg 71%
    09:00 +24°C° 0 mm 1 mps 735 mmHg 64%
    10:00 +26°C° 0 mm 1 mps 735 mmHg 56%
    11:00 +27°C° 0 mm 1 mps 735 mmHg 53%
    12:00 +29°C° 0 mm 1 mps 734 mmHg 49%
    13:00 +30°C° 0 mm 1 mps 734 mmHg 45%
    14:00 +30°C° 0 mm 1 mps 734 mmHg 45%
    15:00 +30°C° 0 mm 1 mps 733 mmHg 44%
    16:00 +30°C° 0 mm 1 mps 733 mmHg 44%
    17:00 +28°C° 0 mm 1 mps 733 mmHg 51%
    18:00 +27°C° 0 mm 1 mps 733 mmHg 57%
    19:00 +25°C° 0 mm 1 mps 733 mmHg 64%
    20:00 +24°C° 0 mm 1 mps 733 mmHg 68%
    21:00 +23°C° 0 mm 1 mps 733 mmHg 72%
    22:00 +21°C° 0 mm 1 mps 733 mmHg 76%
    23:00 +21°C° 0 mm 1 mps 733 mmHg 78%

    Day after tomorrow, 17 August, Friday

    Time Temperature Precipitation Wind Pressure Humidity
    00:00 +20°C° 0 mm 1 mps 733 mmHg 80%
    01:00 +20°C° 0 mm 1 mps 732 mmHg 82%
    02:00 +20°C° 0 mm 1 mps 732 mmHg 83%
    03:00 +19°C° 0 mm 1 mps 732 mmHg 84%
    04:00 +19°C° 0 mm 1 mps 732 mmHg 85%
    05:00 +20°C° 0 mm 1 mps 732 mmHg 82%
    06:00 +21°C° 0 mm 1 mps 733 mmHg 80%
    07:00 +21°C° 0 mm 1 mps 733 mmHg 77%
    08:00 +23°C° 0 mm 1 mps 733 mmHg 70%
    09:00 +25°C° 0 mm 2 mps 733 mmHg 62%
    10:00 +27°C° 0 mm 2 mps 734 mmHg 55%
    11:00 +28°C° 0.2 mm 2 mps 734 mmHg 53%
    12:00 +29°C° 0.2 mm 3 mps 734 mmHg 51%
    13:00 +29°C° 0.2 mm 3 mps 734 mmHg 49%
    14:00 +28°C° 0.6 mm 4 mps 734 mmHg 54%
    15:00 +27°C° 0.6 mm 4 mps 734 mmHg 60%
    16:00 +26°C° 0.6 mm 4 mps 734 mmHg 65%
    17:00 +25°C° 0.9 mm 4 mps 735 mmHg 71%
    18:00 +22°C° 0.9 mm 3 mps 735 mmHg 77%
    19:00 +21°C° 0.9 mm 3 mps 735 mmHg 84%
    20:00 +20°C° 0.1 mm 2 mps 736 mmHg 86%
    21:00 +19°C° 0.1 mm 2 mps 736 mmHg 88%
    22:00 +18°C° 0.1 mm 2 mps 737 mmHg 90%
    23:00 +18°C° 0 mm 2 mps 737 mmHg 91%

    18 August, Saturday

    Time Temperature Precipitation Wind Pressure Humidity
    00:00 +19°C° 0 mm 1 mps 737 mmHg 92%
    01:00 +18°C° 0 mm 1 mps 737 mmHg 93%
    02:00 +18°C° 0 mm 1 mps 737 mmHg 93%
    03:00 +16°C° 0 mm 1 mps 737 mmHg 94%
    04:00 +16°C° 0 mm 1 mps 737 mmHg 94%
    05:00 +16°C° 0 mm 1 mps 737 mmHg 92%
    06:00 +16°C° 0 mm 1 mps 738 mmHg 90%
    07:00 +18°C° 0 mm 1 mps 738 mmHg 88%
    08:00 +20°C° 0 mm 1 mps 738 mmHg 78%
    09:00 +22°C° 0 mm 1 mps 739 mmHg 69%
    10:00 +23°C° 0 mm 1 mps 739 mmHg 60%
    11:00 +24°C° 0 mm 1 mps 739 mmHg 55%
    12:00 +25°C° 0 mm 1 mps 738 mmHg 50%
    13:00 +27°C° 0 mm 1 mps 738 mmHg 45%
    14:00 +27°C° 0 mm 2 mps 738 mmHg 44%
    15:00 +27°C° 0 mm 2 mps 738 mmHg 43%
    16:00 +27°C° 0 mm 2 mps 738 mmHg 42%
    17:00 +25°C° 0 mm 2 mps 738 mmHg 47%
    18:00 +24°C° 0 mm 1 mps 738 mmHg 52%
    19:00 +22°C° 0 mm 1 mps 738 mmHg 57%
    20:00 +21°C° 0 mm 1 mps 738 mmHg 59%
    21:00 +18°C° 0 mm 0 mps 738 mmHg 61%
    22:00 +16°C° 0 mm 0 mps 739 mmHg 62%
    23:00 +16°C° 0 mm 0 mps 739 mmHg 64%

    19 August, Sunday

    Time Temperature Precipitation Wind Pressure Humidity
    00:00 +16°C° 0 mm 0 mps 739 mmHg 65%
    01:00 +15°C° 0 mm 0 mps 739 mmHg 66%
    02:00 +15°C° 0 mm 0 mps 739 mmHg 67%
    03:00 +15°C° 0 mm 0 mps 739 mmHg 69%
    04:00 +14°C° 0 mm 0 mps 738 mmHg 70%
    05:00 +15°C° 0 mm 0 mps 739 mmHg 68%
    06:00 +16°C° 0 mm 0 mps 739 mmHg 67%
    07:00 +17°C° 0 mm 0 mps 739 mmHg 65%
    08:00 +19°C° 0 mm 0 mps 739 mmHg 59%
    09:00 +21°C° 0 mm 0 mps 740 mmHg 53%
    10:00 +26°C° 0 mm 1 mps 740 mmHg 47%
    11:00 +27°C° 0 mm 1 mps 740 mmHg 44%
    12:00 +28°C° 0 mm 1 mps 739 mmHg 41%
    13:00 +29°C° 0 mm 1 mps 739 mmHg 38%
    14:00 +29°C° 0 mm 1 mps 739 mmHg 37%
    15:00 +29°C° 0 mm 1 mps 739 mmHg 37%
    16:00 +28°C° 0 mm 2 mps 738 mmHg 37%
    17:00 +27°C° 0 mm 1 mps 738 mmHg 43%
    18:00 +25°C° 0 mm 1 mps 738 mmHg 49%
    19:00 +23°C° 0 mm 1 mps 738 mmHg 55%
    20:00 +22°C° 0 mm 1 mps 738 mmHg 57%
    21:00 +19°C° 0 mm 0 mps 739 mmHg 59%
    22:00 +18°C° 0 mm 0 mps 739 mmHg 61%
    23:00 +17°C° 0 mm 0 mps 739 mmHg 63%

    20 August, Monday

    Time Temperature Precipitation Wind Pressure Humidity
    00:00 +17°C° 0 mm 0 mps 738 mmHg 64%
    01:00 +19°C° 0 mm 1 mps 738 mmHg 65%
    02:00 +18°C° 0 mm 1 mps 738 mmHg 66%
    03:00 +18°C° 0 mm 1 mps 738 mmHg 67%
    04:00 +18°C° 0 mm 1 mps 738 mmHg 68%
    05:00 +18°C° 0 mm 1 mps 738 mmHg 67%
    06:00 +19°C° 0 mm 1 mps 738 mmHg 66%
    07:00 +18°C° 0 mm 0 mps 738 mmHg 66%
    08:00 +21°C° 0 mm 0 mps 739 mmHg 59%
    09:00 +23°C° 0 mm 0 mps 739 mmHg 53%
    10:00 +25°C° 0 mm 0 mps 739 mmHg 46%
    11:00 +26°C° 0 mm 0 mps 739 mmHg 44%
    12:00 +29°C° 0 mm 1 mps 739 mmHg 41%
    13:00 +31°C° 0 mm 1 mps 738 mmHg 38%
    14:00 +30°C° 0 mm 1 mps 738 mmHg 38%
    15:00 +30°C° 0 mm 1 mps 738 mmHg 38%
    16:00 +30°C° 0 mm 1 mps 737 mmHg 38%
    17:00 +28°C° 0 mm 1 mps 737 mmHg 44%
    18:00 +27°C° 0 mm 1 mps 737 mmHg 50%
    19:00 +23°C° 0 mm 0 mps 737 mmHg 57%
    20:00 +24°C° 0 mm 1 mps 737 mmHg 59%
    21:00 +23°C° 0 mm 1 mps 738 mmHg 61%
    22:00 +22°C° 0 mm 1 mps 738 mmHg 64%
    23:00 +21°C° 0 mm 1 mps 738 mmHg 67%
    Show more